AirNav   $300 off a Bose A20 aviation headset
 
 800 users online  

CA84 Torrey Pines Gliderport
San Diego, California, USA

GOING TO SAN DIEGO?


FAA INFORMATION EFFECTIVE 28 FEBRUARY 2019

Location

FAA Identifier: CA84
Lat/Long: 32-53-23.0000N / 117-14-49.0000W
32-53.383333N / 117-14.816667W
32.8897222 / -117.2469444
(estimated)
Elevation: 372 ft. / 113 m (estimated)
Variation: 13E (1985)
From city: 11 miles NW of SAN DIEGO, CA
Time zone: UTC -8 (UTC -7 during Daylight Saving Time)
Zip code: 92037

Gliderport Operations

Gliderport use: Private use. Permission required prior to landing
Activation date: 11/1961
Control tower: no
ARTCC: LOS ANGELES CENTER
FSS: SAN DIEGO FLIGHT SERVICE STATION
Attendance: UNATNDD
Wind indicator: no
Segmented circle: no

Gliderport Communications

WX ASOS at MYF (7 nm SE): 126.9 (858-576-4337)
WX ASOS at SAN (10 nm S): PHONE 619-296-8934
WX AWOS-3P at SEE (14 nm E): 125.45 (619-449-1228)
WX ASOS at CRQ (14 nm N): PHONE 760-930-0864
WX ASOS at RNM (19 nm NE): 132.025 (760-789-0736)

Nearby radio navigation aids

VOR radial/distance  VOR name  Freq  Var
MZBr335/6.5MISSION BAY VORTAC117.8015E
PGYr307/21.5POGGI VORTAC109.8014E
OCNr143/22.7OCEANSIDE VORTAC115.3015E
TIJr311/25.7TIJUANA VOR/DME116.5014E
JLIr231/36.5JULIAN VORTAC114.0015E

Gliderport Services

Airframe service: NONE
Powerplant service: NONE

Runway Information

Runway 9/27

Dimensions: 1500 x 30 ft. / 457 x 9 m
Surface: asphalt
RUNWAY 9  RUNWAY 27
Traffic pattern: leftleft
Obstructions: nonetrees, 100 ft. from runway

Gliderport Ownership and Management from official FAA records

Ownership: Publicly-owned
Owner: CITY OF SAN DIEGO
Manager: JIM FROST
4740 HARBINSON AVE
LA MESA, CA 91941
Phone 619-461-9614
WORK PHONE 619-535-9505 EXT 1585

Additional Remarks

GLIDER PORT IS LEASED FM CITY TO THE ASSOCD GLIDER CLUB OF SOUTHERN CALIF FOR STUDENT TRAINING & RIDGE SOARING.
ALL ACFT ARE TRAILERED GLIDERS.
ROLLING RWY .6 PERCENT GRADIENT.
EXTENSIVE HANG GLIDER OPERATIONS ON WEEKENDS AND WEEKDAYS.

Instrument Procedures

There are no published instrument procedures at CA84.

Some nearby airports with instrument procedures:

KNKX - Miramar MCAS (Joe Foss Field) Airport (5 nm E)
KMYF - Montgomery-Gibbs Executive Airport (7 nm SE)
KSAN - San Diego International Airport (10 nm S)
KNZY - North Island Naval Air Station (Halsey Field) (12 nm S)
KSEE - Gillespie Field Airport (14 nm E)
KCRQ - Mc Clellan-Palomar Airport (14 nm N)
KRNM - Ramona Airport (19 nm NE)
 
Loc | Ops | Rwys | IFR | FBO | Links
Com | Nav | Svcs | Stats | Notes
Area around CA84 (Torrey Pines Gliderport)
 
Road maps at: MapQuest Bing Google
 
Aerial photo
WARNING: Photo may not be current or correct
Aerial photo of CA84 (Torrey Pines Gliderport)
Photo by Doug Fronius
Photo taken 13-Mar-2004
from a 1942 Schweizer TG-2 sailplane.

Do you have a better or more recent aerial photo of Torrey Pines Gliderport that you would like to share? If so, please send us your photo.

 
Sectional chart

 
Airport distance calculator
Flying to Torrey Pines Gliderport? Find the distance to fly.

From to CA84

Sunrise and sunset
Times for 20-Mar-2019
 Local
(UTC-7)
 Zulu
(UTC)
Morning civil twilight06:2913:29
Sunrise06:5413:54
Sunset18:5901:59
Evening civil twilight19:2402:24

Current date and time
Zulu (UTC)  21-Mar-2019 02:46:34
Local (UTC-7)  20-Mar-2019 19:46:34
 
METAR
KNKX 
6nm E 
210155Z 28008KT 10SM SCT014 16/12 A3005 RMK AO2 SLP173 T01560117
KMYF 
7nm SE 
210153Z 28008KT 10SM BKN016 14/11 A3006 RMK AO2 SLP177 T01440106
KSAN 
10nm S 
210151Z 30007KT 10SM SCT017 SCT027 BKN040 16/11 A3007 RMK AO2 RAB24E34 SLP183 CB DSNT NE VCSH P0000 T01610111 $
KNZY 
11nm S 
210152Z 32011KT 10SM FEW025 SCT045 BKN090 18/12 A3005 RMK AO2 RAB18E52 SLP175 T01830117 PNO $
KCRQ 
15nm N 
210226Z 26007KT 10SM SCT013 SCT021 BKN028 14/12 A3005 RMK AO2 T01440122
KSEE 
15nm E 
210159Z 28008KT 10SM SCT019 SCT026 BKN055 14/11 A3005
KRNM 
19nm NE 
210225Z 30007KT 10SM FEW010 BKN044 11/09 A3006 RMK AO2 T01060089
TAF
KNKX 
6nm E 
2021/2121 28010KT 9999 VCTS SCT030 BKN050 BKN100 QNH2999INS TEMPO 2021/2101 28013G23KT 4800 -TSRA BKN020CB OVC050 FM210230 VRB05KT 9999 SCT020 BKN035 QNH3002INS BECMG 2116/2118 26010KT 9999 SCT020 BKN035 QNH3009INS T15/2021Z T12/2113Z
KSAN 
10nm S 
202042Z 2021/2124 23012G18KT P6SM VCSH BKN030 BKN050 TEMPO 2021/2023 4SM -TSRA BKN030CB FM210100 28009KT P6SM SCT030 BKN040 FM210600 VRB05KT P6SM SCT025 BKN035 FM212100 24009KT P6SM SCT030 BKN040
KNZY 
11nm S 
2023/2123 21009KT 9999 VCTS FEW025 SCT040CB BKN060 530409 531303 532109 533007 QNH2999INS TEMPO 2023/2101 VRB15G20KT 3200 TSRA FEW015 BKN025CB BKN050 FM210200 28009KT 9999 VCTS FEW030 SCT040 SCT080 530409 531303 532109 533007 QNH3003INS TEMPO 2103/2109 31012KT 6000 SHRA BR SCT020 BKN040 FM211800 24011KT 9999 VCSH FEW030 SCT050 BKN070 530409 531303 532109 533007 QNH3002INS TEMPO 2120/2123 6000 SHRA BR SCT015 BKN030 T11/2112Z T17/2121Z FS30022
KCRQ 
15nm N 
201929Z 2019/2118 17007KT P6SM SCT030 BKN050 FM202000 22010G18KT P6SM -SHRA BKN025 BKN050 TEMPO 2020/2023 4SM TSRA BKN025CB FM210100 25008KT P6SM BKN035 FM210500 VRB05KT P6SM BKN030 FM211700 VRB05KT P6SM SCT035
NOTAMs
Click for the latest NOTAMs
NOTAMs are issued by the DoD/FAA and will open in a separate window not controlled by AirNav.

 

 
 

Would you like to see your business listed on this page?

 If your business provides an interesting product or service to pilots, flight crews, aircraft, or users of the Torrey Pines Gliderport, you should consider listing it here.  To start the listing process, click on the button below
 
Add a business
 

Other Pages about Torrey Pines Gliderport

www.agcsc.org/torrey_pines_info.html
 
Update a link
 
Copyright © AirNav, LLC. All rights reserved. Privacy Policy  Contact